C/2018 W2 ( Africano )

Japanese version
Home page
Updated on July 13, 2019

---------------------------------------------------------------------

* Profile

Discovery Date November 27, 2018
Magnitude 18.3 mag and 18.2 mag
Discoverer B. M. Africano (Mount Lemmon), H. Groeller (Catalina Sky Survey)

* Pictures

* Orbital Elements

Epoch 2019 Aug. 25.0 TT = JDT 2458720.5
T 2019 Sept. 5.72827 TT                                 MPCW
q   1.4546930            (2000.0)            P               Q
z  -0.0005384      Peri.  157.97186     +0.92109259     +0.38827254
 +/-0.0000033      Node   181.84984     +0.04815688     -0.04005962
e   1.0007832      Incl.  116.61575     +0.38635392     -0.92067348
From 439 observations 2018 Nov. 27-2019 May 23, mean residual 0".5.

* Finding Charts

* Magnitudes Graph

        m1 = 7.0 + 5 log d + 14.0 log r

---------------------------------------------------------------------

The orbital elements are published on M.P.E.C. 2019-L24.
The charts are made with StellaNavigator Ver.10 (AstroArts).
The magnitudes graphs are made with Comet for Windows.

---------------------------------------------------------------------

Copyright(C) Seiichi Yoshida (comet@aerith.net). All rights reserved.